Content
SEND FEEDBACK

Daily
Averages
Monthly
Summary
United States of America

CHANDLER, INDIANA


Home > North America > United States > Indiana
Elevation: 392 feet     Latitude: 38 02N     Longitude: 087 31W

WEATHER
 
SELECT A DAY
Number of Records: 201,022;   Date Range: 1/1/95 - 4/14/14
 
SHARE

PRINT THIS DATA

[ ← Previous Day ]
WEATHER ALMANAC - JANUARY 31, 2013
[ Next Day → ]
[ °C ]   °F
Weather ElementAverageHighLow
Temperature29.3 °F36 °F (1:54 pm)17.1 °F (11:54 pm)
Dewpoint19.9 °F28.9 °F (5:54 pm)6.8 °F (10:54 pm)
Humidity68.8 %88 % (5:54 pm)52 % (2:54 pm)
Barometer30.05 in30.32 in (11:54 pm)29.93 in (1:54 am)
Wind Speed16.8 mph27.6 mph (6:42 pm)
Wind Gust40.3 mph (6:42 pm)
Weather ElementAverage
Visibility6.5 mi
Wind DirectionWNW (281.9 °)

Weather ElementTotal
Precipitation0.19 in
Heating Degree Days38.5 (Base 65)
Averaged from 37 records on January 31, 2013
WEATHER CONDITIONS BREAKOUT
WIND DIRECTION BREAKOUT
WEATHER BY HOUR - JANUARY 31, 2013
[ °C ]   °F
Local TimeTemperatureDewpointHumidityBarometerVisibilityWind DirectionWind SpeedGust SpeedPrecipitationEventsConditions
1:54 AM30.0 °F18.0 °F61 %29.93 in10.0 miWest (280°)17.3 mph26.5 mphOvercast
2:54 AM30.0 °F18.0 °F61 %29.93 in10.0 miWest (280°)18.4 mph28.8 mphOvercast
3:54 AM30.0 °F18.0 °F61 %29.94 in10.0 miWest (280°)13.8 mph24.2 mphOvercast
4:11 AM30.2 °F19.4 °F64 %29.94 in10.0 miWest (280°)12.7 mphOvercast
4:50 AM28.4 °F17.6 °F64 %29.95 in10.0 miWNW (290°)16.1 mph21.9 mphOvercast
4:54 AM28.9 °F17.1 °F61 %29.96 in10.0 miWNW (290°)17.3 mph23.0 mphOvercast
5:54 AM28.4 °F15.8 °F59 %29.96 in10.0 miWest (280°)16.1 mph26.5 mphOvercast
6:54 AM28.9 °F17.1 °F61 %30.00 in10.0 miWest (260°)9.2 mphOvercast
7:54 AM28.9 °F19.0 °F67 %30.03 in10.0 miWSW (250°)13.8 mphOvercast
8:54 AM30.0 °F18.0 °F61 %30.04 in10.0 miWest (260°)13.8 mph25.3 mph0.00 inOvercast
9:54 AM32.0 °F18.0 °F56 %30.06 in10.0 miWest (260°)17.3 mph24.2 mphOvercast
10:54 AM32.0 °F19.0 °F59 %30.07 in10.0 miWest (260°)19.6 mph25.3 mphOvercast
11:54 AM34.0 °F19.9 °F56 %30.06 in10.0 miWSW (250°)16.1 mph25.3 mphOvercast
12:54 PM35.1 °F19.9 °F54 %30.03 in10.0 miWest (260°)17.3 mphOvercast
1:54 PM36.0 °F21.0 °F55 %30.02 in10.0 miWSW (250°)13.8 mph31.1 mphMostly Cloudy
2:54 PM36.0 °F19.9 °F52 %30.02 in10.0 miWest (270°)18.4 mph26.5 mphMostly Cloudy
3:54 PM36.0 °F21.0 °F55 %30.02 in10.0 miWest (270°)11.5 mphOvercast
4:54 PM35.1 °F23.0 °F61 %30.02 in6.0 miWest (260°)18.4 mph25.3 mph0.00 inSnowLight Snow
5:06 PM33.8 °F26.6 °F75 %30.02 in2.5 miWest (270°)19.6 mph26.5 mph0.00 inSnowLight Snow
5:11 PM33.8 °F26.6 °F75 %30.02 in1.2 miWest (260°)17.3 mph0.00 inSnowLight Snow
5:24 PM32.0 °F28.4 °F87 %30.03 in0.5 miWest (260°)15.0 mph23.0 mph0.00 inFog-SnowSnow
5:31 PM32.0 °F28.4 °F87 %30.02 in0.5 miWest (270°)12.7 mph23.0 mph0.00 inFog-SnowSnow
5:41 PM32.0 °F28.4 °F87 %30.02 in0.5 miWest (270°)12.7 mph0.01 inFog-SnowSnow
5:54 PM32.0 °F28.9 °F88 %30.04 in1.0 miWSW (250°)10.4 mph0.03 inSnowLight Snow
6:32 PM32.0 °F28.4 °F87 %30.03 in2.0 miWest (270°)18.4 mph26.5 mph0.03 inSnowLight Snow
6:39 PM32.0 °F26.6 °F80 %30.05 in2.5 miWNW (290°)23.0 mph29.9 mph0.03 inSnowLight Snow
6:42 PM30.2 °F26.6 °F86 %30.05 in1.2 miWNW (300°)27.6 mph40.3 mph0.03 inSnowLight Snow
6:51 PM26.6 °F23.0 °F86 %30.06 in1.0 miNW (320°)21.9 mph36.8 mph0.03 inSnowLight Snow
6:54 PM27.0 °F21.9 °F81 %30.08 in1.8 miNW (310°)21.9 mph36.8 mph0.03 inSnowLight Snow
7:01 PM26.6 °F21.2 °F80 %30.07 in0.8 miNW (310°)20.7 mph32.2 mph0.00 inSnowSnow
7:22 PM24.8 °F19.4 °F80 %30.11 in0.8 miNNW (330°)19.6 mph33.4 mph0.00 inSnowSnow
7:37 PM24.8 °F17.6 °F74 %30.13 in0.8 miNW (320°)25.3 mph32.2 mph0.00 inSnowSnow
7:54 PM23.0 °F14.0 °F68 %30.16 in9.0 miNW (320°)16.1 mph29.9 mph0.00 inSnowLight Snow
8:54 PM19.9 °F9.0 °F62 %30.20 in10.0 miNW (310°)17.3 mph32.2 mph0.00 inClear
9:54 PM18.0 °F8.1 °F65 %30.25 in10.0 miNW (320°)16.1 mph25.3 mphClear
10:54 PM17.6 °F6.8 °F63 %30.26 in10.0 miNW (310°)10.4 mphMostly Cloudy
11:54 PM17.1 °F7.0 °F65 %30.32 in10.0 miNW (310°)15.0 mph24.2 mphOvercast
Hourly data recorded from KEVV, located 1.08 miles away from Chandler, Indiana







STORIES FROM OUR PARTNERS